[[{"header":{"parameterUnit":"m.s-1","parameterCategory":1,"la1":30.2991,"la2":30.254,"lo1":-89.0895,"lo2":-89.0444,"dy":0.0017,"dx":0.0017,"nx":28,"ny":28,"refTime":"2025-07-07T09:00:00:Z","depth":0,"parameterNumber":2,"parameterNumberName":"U-component_of_WINDS"},"data":[0,0,0,0,0,0,0,0,0,0,0,0,0,0,0,0,0,0,0,0,0,0,0,0,0,0,0,0,0,0,0,0,0,0,0,0,0,0,0,0,0,0,0,0,0,0,0,0,0,0,0,0,0,0,0,0,0,0,4.0928,4.0929,0,4.106,4.1061,4.1063,4.1023,4.102,4.1017,4.1015,4.1149,4.1155,4.1162,0,0,0,0,0,0,0,0,0,0,0,0,0,4.0639,4.0645,4.0928,4.093,4.0931,4.1059,4.1061,4.1063,4.1023,4.102,4.1016,4.1013,4.1147,4.1155,4.1162,0,0,0,0,0,0,0,0,0,0,0,0,0,4.0767,4.0647,4.0928,4.0927,4.0928,4.1059,4.1061,4.1063,4.1024,4.102,4.1016,4.1012,4.1145,4.1154,4.1163,4.1303,0,0,4.1191,4.1195,0,0,0,0,0,0,0,0,4.076,4.0778,4.0925,4.0927,4.0929,4.102,4.1009,4.1144,4.1025,4.0988,4.1014,4.101,4.111,4.1122,4.1156,4.1309,4.1315,4.1192,4.1198,4.1202,4.1204,0,0,0,0,0,0,0,4.0751,4.0772,4.098,4.0927,4.093,4.0919,4.0933,4.1034,4.107,4.099,4.0988,4.1004,4.111,4.1147,4.1158,4.1317,4.1192,4.12,4.1206,4.1209,4.1587,4.1591,0,0,0,0,0,0,4.0741,4.0765,4.0976,4.0984,4.0832,4.0927,4.0943,4.0995,4.1069,4.1076,4.1007,4.1002,4.1133,4.1148,4.1163,4.1327,4.1202,4.121,4.1216,4.1582,4.1588,4.1592,0,0,0,0,0,0,4.0735,4.0761,4.097,4.0874,4.09,4.0937,4.0996,4.1,4.1037,4.1082,4.1088,4.1038,4.113,4.115,4.1267,4.1332,4.1214,4.1223,4.1577,4.1584,4.159,4.166,0,0,0,0,0,0,4.0727,4.0759,4.0813,4.0875,4.0905,4.1074,4.1,4.1006,4.1053,4.1046,4.1113,4.112,4.1129,4.1254,4.1276,4.1342,4.123,4.1571,4.158,4.1588,4.1652,4.1668,4.1682,0,0,0,0,0,4.0717,4.0829,4.0816,4.0842,4.0974,4.1077,4.1094,4.1102,4.1058,4.1112,4.114,4.1117,4.1322,4.1266,4.1291,4.1361,4.1567,4.1577,4.1587,4.1645,4.1665,4.1682,0,0,0,0,0,0,4.0774,4.0837,4.0824,4.0959,4.1013,4.107,4.1139,4.1124,4.1192,4.1183,4.119,4.1206,4.1325,4.1355,4.1292,4.1498,4.1438,4.1453,4.1473,4.1492,4.1507,4.1496,4.1238,0,0,0,0,0,4.0802,4.0882,4.0932,4.1047,4.1074,4.1102,4.1148,4.1149,4.1205,4.1228,4.1265,4.132,4.1396,4.1447,4.152,4.1657,4.1668,4.1717,4.1732,4.1744,4.1757,4.1827,4.1848,4.1625,4.1625,4.1625,0,0,4.0862,4.0906,4.0956,4.1059,4.1101,4.1181,4.1122,4.1211,4.1269,4.1242,4.1353,4.1382,4.1444,4.1571,4.1629,4.16,4.1821,4.1757,4.1766,4.1773,4.184,4.1861,4.1879,4.1632,4.1631,4.163,0,0,4.101,4.1053,4.115,4.1193,4.1257,4.1274,4.1297,4.1357,4.1375,4.1487,4.1466,4.1536,4.1669,4.1712,4.1752,4.1913,4.1892,4.1936,4.2014,4.2083,4.21,4.2116,4.2169,4.2189,4.1949,4.195,4.195,0,4.1075,4.1196,4.1203,4.1292,4.1336,4.1314,4.1411,4.1452,4.1537,4.1568,4.1534,4.1696,4.1737,4.1871,4.191,4.1944,4.1969,4.1928,4.2097,4.2113,4.2127,4.2178,4.2199,4.1954,4.1954,4.1953,4.1953,0,4.1271,4.1355,4.1426,4.1506,4.1559,4.1652,4.1671,4.1724,4.172,4.174,4.1853,4.19,4.198,4.2013,4.2011,4.2146,4.2125,4.2095,4.2034,4.2153,4.2201,4.2221,4.1961,4.1959,4.1958,4.1957,0,0,4.1459,4.1539,4.1565,4.1599,4.1667,4.1731,4.1822,4.1899,4.1942,4.2002,4.2075,4.2186,4.2157,4.2202,4.2205,4.2265,4.2384,4.2227,4.2228,4.2251,4.2531,4.2551,4.2573,4.2372,4.2376,4.2379,4.2524,0,4.1609,4.1769,4.1776,4.192,4.1995,4.1974,4.2052,4.2101,4.2122,4.2188,4.2211,4.2287,4.2246,4.2272,4.2331,4.2357,4.244,4.2347,4.2439,4.2442,4.242,4.2599,4.2621,4.2756,4.2543,4.2547,4.2549,0,4.1807,4.1869,4.202,4.2073,4.2105,4.2176,4.2244,4.2309,4.2363,4.2374,4.2422,4.2415,4.2505,4.2443,4.2566,4.2503,4.2541,4.2559,4.2565,4.2571,4.25,4.2607,4.28,4.2818,4.2579,4.2577,4.2575,0,4.1923,4.2046,4.2151,4.2181,4.2247,4.2296,4.2325,4.2375,4.242,4.2481,4.2509,4.258,4.2618,4.2673,4.2684,4.2639,4.2806,4.2746,4.2815,4.2814,4.2849,4.2846,4.3047,4.2879,4.2879,4.2879,4.2878,0,4.2089,4.2181,4.2203,4.2268,4.2369,4.2376,4.2476,4.2502,4.2546,4.2614,4.2601,4.2664,4.2677,4.2743,4.2753,4.285,4.2869,4.2878,4.2879,4.2877,4.2876,4.29,4.289,4.2884,4.2883,4.2882,4.2881,0,4.2235,4.2254,4.2367,4.2418,4.2433,4.2506,4.2549,4.261,4.2628,4.2714,4.2734,4.2763,4.2839,4.2856,4.2948,4.2954,4.3069,4.3063,4.305,4.3049,4.3115,4.3107,4.3336,4.3364,4.3182,4.3183,4.3185,0,4.2338,4.2408,4.2466,4.251,4.2541,4.2613,4.2657,4.2667,4.2713,4.2778,4.283,4.2905,4.2964,4.3087,4.3116,4.3184,4.3177,4.3253,4.3187,4.3182,4.3173,4.3167,4.3172,4.3264,4.3266,4.3268,4.3269,0,4.2517,4.2522,4.2587,4.2654,4.2707,4.2761,4.2813,4.2849,4.2865,4.2918,4.2995,4.3041,4.3133,4.3205,4.3274,4.3303,4.3288,4.3289,4.3308,4.3306,4.3294,4.3297,4.308,4.3284,4.3282,4.3281,4.328,4.328,4.2642,4.2701,4.275,4.2822,4.2861,4.2908,4.2966,4.2991,4.3055,4.313,4.3131,4.3214,4.3263,4.3353,4.3386,4.345,4.3426,4.3455,4.3461,4.3467,4.3471,4.3286,4.3463,4.3463,4.3462,4.3462,4.3462,0,4.2816,4.2846,4.2912,4.2982,4.3038,4.3019,4.3074,4.3121,4.3194,4.3241,4.3299,4.3386,4.3456,4.3489,4.3558,4.3602,4.3596,4.3619,4.3614,4.362,4.3491,4.3465,4.3622,4.3622,4.3622,4.3622,4.3622,4.3622,4.2913,4.3011,4.3021,4.3138,4.3167,4.3247,4.3279,4.3322,4.3359,4.3456,4.3513,4.3534,4.3575,4.3645,4.3708,4.3716,4.374,4.3765,4.3769,4.3647,4.363,4.3615,4.3591,4.3771,4.3772,4.3893,4.3894,4.3895]},{"header":{"parameterUnit":"m.s-1","parameterCategory":1,"la1":30.2991,"la2":30.254,"lo1":-89.0895,"lo2":-89.0444,"dy":0.0017,"dx":0.0017,"nx":28,"ny":28,"refTime":"2025-07-07T09:00:00:Z","depth":0,"parameterNumber":3,"parameterNumberName":"V-component_of_WINDS"},"data":[0,0,0,0,0,0,0,0,0,0,0,0,0,0,0,0,0,0,0,0,0,0,0,0,0,0,0,0,0,0,0,0,0,0,0,0,0,0,0,0,0,0,0,0,0,0,0,0,0,0,0,0,0,0,0,0,0,0,2.0618,2.0618,0,2.067,2.0671,2.0671,2.0642,2.0641,2.0639,2.0638,2.0692,2.0695,2.0698,0,0,0,0,0,0,0,0,0,0,0,0,0,2.0492,2.0494,2.0618,2.0619,2.0619,2.067,2.0671,2.0672,2.0642,2.0641,2.0639,2.0637,2.0691,2.0695,2.0698,0,0,0,0,0,0,0,0,0,0,0,0,0,2.0546,2.0495,2.0618,2.0611,2.0611,2.067,2.0671,2.0672,2.0643,2.0641,2.0638,2.0636,2.069,2.0694,2.0698,2.0768,0,0,2.0711,2.0713,0,0,0,0,0,0,0,0,2.0543,2.055,2.0611,2.0611,2.0611,2.0647,2.0646,2.0704,2.0643,2.0631,2.0638,2.0635,2.0679,2.0684,2.0699,2.077,2.0773,2.0712,2.0714,2.0716,2.0717,0,0,0,0,0,0,0,2.0539,2.0548,2.0639,2.0612,2.0612,2.0605,2.061,2.0657,2.0666,2.0632,2.063,2.0636,2.0679,2.0695,2.07,2.0773,2.0711,2.0715,2.0718,2.0719,2.0902,2.0905,0,0,0,0,0,0,2.0536,2.0545,2.0637,2.064,2.0571,2.0609,2.0615,2.0638,2.0666,2.0668,2.0638,2.0635,2.0689,2.0695,2.0702,2.0783,2.0716,2.072,2.0722,2.09,2.0903,2.0905,0,0,0,0,0,0,2.0533,2.0544,2.0635,2.0592,2.0603,2.0613,2.064,2.064,2.0656,2.0671,2.0672,2.0653,2.0687,2.0696,2.0751,2.0785,2.0722,2.0726,2.0897,2.0901,2.0904,2.0948,0,0,0,0,0,0,2.053,2.0543,2.057,2.0593,2.0605,2.0684,2.0642,2.0643,2.0663,2.066,2.0685,2.0687,2.0686,2.0745,2.0755,2.0789,2.0729,2.0894,2.0899,2.0903,2.0944,2.0953,2.0961,0,0,0,0,0,2.0525,2.0581,2.0572,2.0583,2.0639,2.0686,2.0693,2.0691,2.0666,2.0693,2.0702,2.0686,2.0779,2.0751,2.0762,2.0798,2.0892,2.0898,2.0903,2.094,2.0951,2.096,0,0,0,0,0,0,2.0563,2.0584,2.0574,2.0639,2.0661,2.0681,2.0715,2.0703,2.0732,2.0728,2.0724,2.0729,2.0787,2.0798,2.0766,2.0866,2.0832,2.084,2.0856,2.0867,2.0875,2.0871,2.0732,0,0,0,0,0,2.0579,2.0615,2.0632,2.0687,2.0699,2.0705,2.0725,2.0721,2.0744,2.0753,2.0766,2.0789,2.0823,2.0846,2.0878,2.0945,2.0949,2.0975,2.0984,2.099,2.0997,2.1032,2.1043,2.0923,2.0923,2.0923,0,0,2.0613,2.0628,2.0652,2.0695,2.0712,2.0749,2.0713,2.0754,2.0782,2.076,2.0812,2.0822,2.0847,2.0908,2.0936,2.0919,2.1031,2.0997,2.1003,2.1006,2.1039,2.105,2.106,2.0926,2.0926,2.0925,0,0,2.0692,2.0708,2.0756,2.0772,2.0797,2.0801,2.0812,2.0834,2.0839,2.0892,2.0875,2.0908,2.0967,2.0985,2.1002,2.1085,2.1071,2.1096,2.114,2.1174,2.1183,2.1192,2.1221,2.1231,2.1103,2.1103,2.1103,0,2.0731,2.0786,2.0782,2.0824,2.0843,2.0823,2.0871,2.0887,2.0922,2.0935,2.0916,2.0989,2.1004,2.1068,2.1089,2.1103,2.1115,2.1093,2.1182,2.1191,2.1198,2.1226,2.1237,2.1106,2.1105,2.1105,2.1105,0,2.0831,2.087,2.0905,2.0938,2.0961,2.1006,2.1007,2.1031,2.1025,2.103,2.1083,2.11,2.1135,2.115,2.1145,2.1213,2.1201,2.1183,2.1148,2.1213,2.1238,2.1249,2.111,2.1109,2.1108,2.1107,0,0,2.0938,2.0966,2.0979,2.0993,2.1018,2.1048,2.1091,2.1124,2.1144,2.1168,2.1203,2.1253,2.1234,2.1253,2.125,2.1279,2.1343,2.1256,2.1257,2.1271,2.1418,2.1432,2.1444,2.1334,2.1336,2.1337,2.1415,0,2.1019,2.1094,2.109,2.116,2.1195,2.1176,2.1213,2.1232,2.1238,2.1267,2.1273,2.1308,2.1282,2.1293,2.1322,2.1329,2.1372,2.1324,2.1366,2.1368,2.136,2.1458,2.1473,2.1546,2.1426,2.1427,2.1429,0,2.1123,2.1149,2.1223,2.1241,2.1255,2.1289,2.1318,2.1347,2.1368,2.1369,2.139,2.138,2.1423,2.1387,2.1445,2.1412,2.1429,2.1435,2.1438,2.1442,2.1402,2.1464,2.157,2.158,2.1445,2.1443,2.1442,0,2.1192,2.1246,2.1296,2.1309,2.1332,2.1355,2.1366,2.1384,2.1404,2.1429,2.1442,2.1472,2.1488,2.1512,2.151,2.1485,2.1569,2.1534,2.1571,2.1571,2.159,2.1589,2.1699,2.1601,2.1601,2.1601,2.1601,0,2.1283,2.1328,2.1327,2.1359,2.1408,2.1403,2.1452,2.146,2.1476,2.1508,2.1494,2.1524,2.152,2.155,2.1549,2.1597,2.1604,2.1606,2.1606,2.1608,2.1607,2.1619,2.1613,2.1604,2.1603,2.1603,2.1602,0,2.1369,2.137,2.1424,2.144,2.1445,2.1481,2.1495,2.1524,2.1527,2.1567,2.1576,2.1582,2.1616,2.1617,2.1656,2.1656,2.1713,2.1707,2.1706,2.1705,2.1742,2.1738,2.1863,2.1879,2.1771,2.1772,2.1773,0,2.1426,2.146,2.148,2.1499,2.1511,2.1544,2.1563,2.1559,2.1579,2.1604,2.163,2.1663,2.1689,2.1744,2.1751,2.1781,2.1775,2.1817,2.178,2.178,2.1775,2.1772,2.1775,2.1824,2.1825,2.1826,2.1827,0,2.1527,2.1526,2.1554,2.1583,2.1606,2.1629,2.1649,2.1666,2.1664,2.1688,2.1722,2.1742,2.1782,2.1814,2.1842,2.1853,2.1839,2.1839,2.1849,2.1851,2.1849,2.185,2.1725,2.1836,2.1835,2.1835,2.1834,2.1834,2.16,2.1629,2.1647,2.1678,2.1693,2.1712,2.174,2.1746,2.1774,2.1806,2.1801,2.1839,2.1857,2.1894,2.1906,2.1936,2.1921,2.1936,2.194,2.1943,2.1947,2.1844,2.1941,2.1941,2.194,2.194,2.194,0,2.17,2.171,2.1739,2.1767,2.1792,2.1777,2.1798,2.182,2.1853,2.1871,2.1896,2.1935,2.1966,2.1975,2.2004,2.2026,2.202,2.2034,2.2032,2.2034,2.1959,2.1947,2.2037,2.2037,2.2037,2.2037,2.2037,2.2037,2.1754,2.1802,2.1802,2.1856,2.1866,2.1903,2.1916,2.1933,2.1947,2.1991,2.2016,2.2021,2.2035,2.2065,2.2092,2.2094,2.2105,2.2121,2.212,2.205,2.204,2.203,2.2019,2.2124,2.2124,2.2193,2.2194,2.2194]}]]